Regional Weather Roundup
Issued by NWS

Home | Current Version | Previous Version | Graphics & Text | Print | Product List | Glossary On
Versions: 1 2 3 4 5 6 7 8 9 10 11 12 13 14 15 16 17 18 19 20 21 22 23 24 25 26 27 28 29 30 31 32 33 34 35 36 37 38 39 40 41 42 43 44 45 46 47 48 49 50
000
ASUS45 KPSR 280210
RWRAZ

ARIZONA HOURLY REGIONAL WEATHER ROUNDUP
NATIONAL WEATHER SERVICE PHOENIX AZ
700 PM MST WED MAY 27 2015

NOTE: FAIR INDICATES FEW OR NO CLOUDS BELOW 12,000 FEET WITH NO
SIGNIFICANT WEATHER AND/OR OBSTRUCTIONS TO VISIBILITY.

AZZ001>003-036-280300-
NORTHWEST ARIZONA

CITY           SKY/WX    TMP DP  RH WIND       PRES   REMARKS
BULLHEAD CITY  CLEAR     95  16   5 S9        29.78S
KINGMAN        CLEAR     81  22  11 SW18G26   29.95R
$$

AZZ004>008-015-016-018-280300-
NORTH CENTRAL ARIZONA

CITY           SKY/WX    TMP DP  RH WIND       PRES   REMARKS
GRAND CANYON   PTCLDY    67  27  22 SW13      30.13R
WILLIAMS       CLEAR     64  27  24 SW8       30.22R
PRESCOTT       PTCLDY    73  30  20 SW6       30.05S
FLAGSTAFF      CLEAR     62  27  26 SW10      30.17R
PAYSON         MOCLDY    73  23  15 CALM      30.08S
PAGE           PTCLDY    81  34  18 NW7       29.95R
$$

AZZ009>014-017-280300-
NORTHEAST ARIZONA

CITY           SKY/WX    TMP DP  RH WIND       PRES   REMARKS
WINSLOW        PTCLDY    74  31  20 W9        30.04R
SAINT JOHNS    PTCLDY    74  18  12 W9        30.06R
WINDOW ROCK    MOCLDY    68  22  17 W8        30.14R
SHOW LOW       PTCLDY    66  14  13 SW10      30.14R
$$

AZZ023-280300-
GREATER PHOENIX AREA

CITY           SKY/WX    TMP DP  RH WIND       PRES   REMARKS
PHOENIX        MOCLDY    92  34  13 NW12      29.80S
BUCKEYE        PTCLDY    90  32  12 W8        29.82R
GLENDALE       MOCLDY    91  28  10 SW5       29.82S
LUKE AFB       PTCLDY    91  28  10 SW2       29.80S
DEER VALLEY    MOCLDY    89  30  12 W8        29.83S
SCOTTSDALE     MOCLDY    90  27  10 NW5       29.84S
MESA-FALCON    MOCLDY    90  30  12 W9        29.82S
CHANDLER       MOCLDY    91  34  13 W17       29.81S
$$

AZZ027-028-280300-
SOUTHWEST MARICOPA COUNTY AND PINAL COUNTY

CITY           SKY/WX    TMP DP  RH WIND       PRES   REMARKS
CASA GRANDE    PTCLDY    91  34  13 NW9       29.82R
GILA BEND      PTCLDY    92  20   7 W12       29.80R
$$

AZZ503-504-507>509-280300-
SOUTHEAST ARIZONA

CITY           SKY/WX    TMP DP  RH WIND       PRES   REMARKS
TUCSON         PTCLDY    90  16   6 W7        29.91R
DAVIS-MONTHAN  CLEAR     88  17   7 NW8       29.89R
RYAN FIELD       N/A     91  19   7 S8        29.89R
NOGALES        CLEAR     82  18   9 SW8       29.99R
SIERRA VISTA   CLEAR     80   3   5 W12       30.05R
DOUGLAS        CLEAR     82  12   7 SW9       29.99R
SAFFORD        MOCLDY    87  13   6 W12       29.89R
$$

AZZ020-021-025-026-031-280300-
SOUTHWEST ARIZONA

CITY           SKY/WX    TMP DP  RH WIND       PRES   REMARKS
YUMA           PTCLDY    93  39  15 S6        29.78S
$$

CAZ031-033-041-043-047-048-061-280300-
SOUTHERN CALIFORNIA

CITY           SKY/WX    TMP DP  RH WIND       PRES   REMARKS
DOWNTOWN L.A.  CLEAR     66  54  65 VRB3      29.95S
L.A. AIRPORT   PTCLDY    62  55  77 W10       29.97R
SAN DIEGO      PTCLDY    65  53  65 W10       29.98S
BURBANK        CLEAR     67  53  61 S8        29.94R
ONTARIO        CLEAR     70  53  54 SW14      29.94R
RIVERSIDE      CLEAR     71  53  52 W12       29.93R
PALM SPRINGS   CLEAR     91  49  23 NW16      29.80R
EL CENTRO NAS  CLEAR     93  44  18 SE5       29.76F
IMPERIAL       CLEAR     94  42  16 E6        29.75S
BLYTHE         CLEAR     93  39  15 S13       29.77S
$$

NVZ020-UTZ003-280300-
SOUTHERN NEVADA-UTAH

CITY           SKY/WX    TMP DP  RH WIND       PRES   REMARKS
LAS VEGAS      PTCLDY    92  31  11 S12G21    29.77S
SALT LAKE CITY CLOUDY    67  45  45 NW12      30.03R
$$

NMZ009-TXZ055-280300-
NEW MEXICO-WEST TEXAS

CITY           SKY/WX    TMP DP  RH WIND       PRES   REMARKS
ALBUQUERQUE    CLOUDY    76  33  21 CALM      30.05R
EL PASO        MOCLDY    88  17   7 NW7       29.93S
$$


........................KEY........................
SKY/WX - SKY CONDITION/WEATHER
TMP    - TEMPERATURE IN FAHRENHEIT
DP     - DEW POINT IN FAHRENHEIT
RH     - RELATIVE HUMIDITY IN PERCENT
WIND   - DIRECTION AND SPEED IN MILES PER HOUR (MPH)
VRB    - VARIABLE WIND DIRECTION
PRES   - MEAN SEA LEVEL PRESSURE IN INCHES OF MERCURY
         F - FALLING PRESSURE   R - RISING PRESSURE
         S - STEADY PRESSURE
VSB    - VISIBILITY IN MILES
HX     - HEAT INDEX IN FAHRENHEIT
WCI    - WIND CHILL INDEX IN FAHRENHEIT
TC     - TEMPERATURE IN CELSIUS WHICH IS ALSO KNOWN AS
         TEMPERATURE IN CENTIGRADE
AFB    - AIR FORCE BASE
         LUKE AFB IS LUKE AIR FORCE BASE
         DAVIS-MONTHAN IS DAVIS-MONTHAN AIR FORCE BASE
NAS    - NAVAL AIR STATION
         EL CENTRO NAS IS EL CENTRO NAVAL AIR STATION
N/A    - NOT AVAILABLE




USA.gov is the U.S. government's official web portal to all federal, state and local government web resources and services.